Simultaneous Nadir Overpasses (SNOs) Predictions

Prediction of SNOs between METOP-A and NOAA-19 Satellite Orbit:

Table of predicted SNOs for the next 14.0 days since TLE Epoch: 1/4/2019
Index Date (METOP-A) Time (METOP-A) Lat,Lon (METOP-A) SZA (METOP-A ) Date (NOAA-19) Time (NOAA-19) Lat,Lon (NOAA-19) SZA (NOAA-19 ) Distance(km) Time Diff (sec)
1 01/14/2019 10:01:39 79.26, 40.32 100.63 01/14/2019 10:00:25 79.28, 40.22 100.64 3.16 74
2 01/14/2019 10:52:21 -79.24,-152.47 79.40 01/14/2019 10:51:24 -79.27,-152.44 79.38 3.04 57
3 01/14/2019 11:43:00 79.27, 15.08 100.63 01/14/2019 11:42:25 79.25, 14.98 100.60 3.31 35
4 01/14/2019 12:33:42 -79.26,-177.71 79.40 01/14/2019 12:33:24 -79.24,-177.68 79.42 1.95 18
5 01/14/2019 13:24:22 79.25, -10.41 100.59 01/14/2019 13:24:26 79.25, -10.54 100.59 2.53 4
6 01/14/2019 14:15:04 -79.24, 156.80 79.44 01/14/2019 14:15:25 -79.24, 156.81 79.43 0.66 21
7 01/14/2019 15:05:44 79.23, -35.91 100.56 01/14/2019 15:06:26 79.22, -35.78 100.56 2.86 42
8 01/14/2019 15:56:26 -79.22, 131.30 79.47 01/14/2019 15:57:26 -79.24, 131.30 79.44 3.09 60




NCC Satellite Simultaneous Nadir Overpasses (SNOs) Prediction Service
